Regional Weather Roundup
Issued by NWS

Home | Current Version | Previous Version | Graphics & Text | Print | Product List | Glossary On
Versions: 1 2 3 4 5 6 7 8 9 10 11 12 13 14 15 16 17 18 19 20 21 22 23 24 25 26 27 28 29 30 31 32 33 34 35 36 37 38 39 40 41 42 43 44 45 46 47 48 49 50
438
ASUS43 KMPX 301801
RWRMN
WEATHER ROUNDUP FOR MINNESOTA
NATIONAL WEATHER SERVICE TWIN CITIES/CHANHASSEN MN
100 PM CDT MON MAY 30 2016


NOTE: "FAIR" INDICATES FEW OR NO CLOUDS BELOW 12,000 FEET WITH NO
SIGNIFICANT WEATHER AND/OR OBSTRUCTIONS TO VISIBILITY. N/A MEANS
CURRENT SKY AND/OR WEATHER CONDITIONS ARE NOT AVAILABLE.

MNZ060>063-068>070-301900-
   Twin Cities Metro

CITY           SKY/WX    TMP DP  RH WIND       PRES   REMARKS
TWIN CITIES    PTSUNNY   79  51  37 SW8       29.99F
6HR MIN TEMP:  62; 6HR MAX TEMP:  81;

ST PAUL        PTSUNNY   80  54  40 SW12      29.99S
CRYSTAL        MOSUNNY   80  49  33 MISG      29.97F
BLAINE         MOSUNNY   82  54  36 S5        29.99S
EDEN PRAIRIE   MOSUNNY   80  52  37 SW10      29.98F
6HR MIN TEMP:  59; 6HR MAX TEMP:  81;

SOUTH ST PAUL  SUNNY     79  52  37 SW8       29.99F
LAKE ELMO      FAIR      79  55  44 S7        30.01S
$$
MNZ001>005-007-008-013>017-022>024-027-028-301900-
   Northwest Minnesota

CITY           SKY/WX    TMP DP  RH WIND       PRES   REMARKS
BEMIDJI        PTSUNNY   75  42  30 CALM      29.95S
HALLOCK        SUNNY     79  48  34 S9        29.89F
ROSEAU         SUNNY     73  55  53 SW5       29.93S
WARROAD        SUNNY     66  57  72 NE8       29.95S
THIEF RVR FALL PTSUNNY   73  43  33 SE8       29.93F
CROOKSTON      PTSUNNY   79  52  38 S8        29.91S
FOSSTON        SUNNY     79  54  41 SE3       29.94F
DETROIT LAKES  SUNNY     79  50  36 W3        29.94F
MOORHEAD       SUNNY     81  50  34 S7        29.90F
PARK RAPIDS    CLOUDY    77  51  40 W6        29.94F
MAHNOMEN       FAIR      76  54  47 W3        29.93F
$$
MNZ006-009>011-018-025>026-301900-
   North Central Minnesota

CITY           SKY/WX    TMP DP  RH WIND       PRES   REMARKS
BAUDETTE       SUNNY     74  51  44 VRB5      29.94F
FLAG ISLAND    SUNNY     64  54  68 NW3       29.95R
INTL FALLS     PTSUNNY   71  54  54 VRB7      29.95S
6HR MIN TEMP:  50; 6HR MAX TEMP:  74;

WASKISH        SUNNY     75  43  31 SW7       29.95S
BIG FORK       MOSUNNY   79  43  27 SW5       29.96S
LONGVILLE      MOSUNNY   79  45  29 S3        29.96F
GRAND RAPIDS   MOSUNNY   76  44  32 VRB5      29.98S
CRANE LAKE     MOSUNNY   70  52  52 NW7       29.98R
ORR            SUNNY     73  45  35 NW7       29.94S
COOK           MOSUNNY   75  45  33 W9        29.97R
WALKER         MOCLDY    77  47  35 SW5       29.95F
$$
MNZ012-019>021-037-301900-
   Northeast Minnesota

CITY           SKY/WX    TMP DP  RH WIND       PRES   REMARKS
DULUTH         MOSUNNY   77  46  33 SW8       29.97S
6HR MIN TEMP:  58; 6HR MAX TEMP:  77;

ELY            MOSUNNY   73  43  33 W15G23    29.96S
HIBBING        SUNNY     75  42  30 W8G20     29.96F
EVELETH        MOSUNNY   73  43  33 W10G16    29.98S
DULUTH HARBOR  SUNNY     79  45  29 W6        29.95S
TWO HARBORS      N/A     79  52  38 W9        29.94S
SILVER BAY     MOSUNNY   79  45  29 SW6       29.93F
GRAND MARAIS     N/A     76  48  37 W10G25    29.91S
G MARAIS ARPRT MOSUNNY   70  46  43 W12G22    29.96R
$$
MNZ029>031-032-039>041-046>048-054>057-064-301900-
   West Central Minnesota

CITY           SKY/WX    TMP DP  RH WIND       PRES   REMARKS
FERGUS FALLS   SUNNY     81  50  34 S10G16    29.88F
WHEATON        SUNNY     84  52  32 SE16G22   29.91F
MORRIS         SUNNY     79  52  38 S16       29.92F
ALEXANDRIA     SUNNY     79  50  36 S9        29.96F
ELBOW LAKE     FAIR      81  51  35 SE12G17   29.93F
WADENA         SUNNY     79  48  34 SW6       29.95S
GLENWOOD       SUNNY     79  52  38 S14       29.97F
APPLETON       SUNNY     81  48  32 S13G18    29.92F
BENSON         SUNNY     81  48  32 S15       29.95F
ORTONVILLE     MOSUNNY   81  54  39 S10G17    29.91F
MADISON        SUNNY     82  48  30 S15       29.91F
WILLMAR        FAIR      79  55  44 SE12      29.98F
$$
MNZ033>034-036-042>043-049>051-058-059-301900-
   Central Minnesota

CITY           SKY/WX    TMP DP  RH WIND       PRES   REMARKS
ST CLOUD       MOSUNNY   80  50  34 SW8       29.97S
6HR MIN TEMP:  55; 6HR MAX TEMP:  80;

SAUK CENTRE    FAIR      78  51  39 S7G16     29.96F
PAYNESVILLE    MOSUNNY   79  50  36 SE12      29.98F
AITKIN         MOSUNNY   81  39  22 W7        29.95F
PINE RIVER     PTSUNNY   77  52  41 CALM      29.98F
BRAINERD       SUNNY     79  49  34 SW7       29.96F
STAPLES        SUNNY     79  48  34 S7        29.95F
LONG PRAIRIE   FAIR      77  52  41 S7        29.97F
LITTLE FALLS   SUNNY     77  46  33 SW6       29.97F
LITCHFIELD     CLOUDY    77  57  50 SE3       29.99F
BUFFALO        MOSUNNY   78  53  42 S5        30.00F
MAPLE LAKE     MOSUNNY   79  58  48 S6        30.00F
HUTCHINSON     PTSUNNY   77  59  53 SE5       30.00F
$$
MNZ037-044-045-052-053-301900-
   East Central Minnesota

CITY           SKY/WX    TMP DP  RH WIND       PRES   REMARKS
PRINCETON      SUNNY     82  52  34 S6        29.98S
MORA           SUNNY     77  50  38 S9        29.99S
CAMBRIDGE        N/A     81  59  47 S9        29.96S
RUSH CITY      SUNNY     79  50  35 SW3       29.98S
MOOSE LAKE     MOSUNNY   79  48  34 W8        29.95F
HINCKLEY       FAIR      79  54  41 SW3       29.97F
CLOQUET        MOSUNNY   79  41  25 W8        29.96F
MCGREGOR       MOSUNNY   77  45  31 W8        29.97S
$$
MNZ071>073-080-081-089-090-097-098-301900-
   Southwest Minnesota

CITY           SKY/WX    TMP DP  RH WIND       PRES   REMARKS
MONTEVIDEO     SUNNY     82  54  36 S12G20    29.95F
GRANITE FALLS  SUNNY     83  55  37 S12       29.95F
CANBY          SUNNY     83  58  41 S12       29.93F
MARSHALL       SUNNY     80  56  43 S16       29.94F
REDWOOD FALLS  SUNNY     81  50  33 S15       29.95F
OLIVIA         MOSUNNY   73  48  40 SE14G20   29.96F
PIPESTONE      MOSUNNY   75  55  50 S17       29.96F
WINDOM         SUNNY     81  52  36 CALM      29.98F
WORTHINGTON    SUNNY     77  57  50 S15G21    29.99F
JACKSON        SUNNY     79  50  36 S13G21    30.00S
TRACY          SUNNY     80  54  40 S13G21    29.96F
SLAYTON        MOSUNNY   79  51  38 SE17G23   29.98F
$$
MNZ065>067-074>077-082>085-091>093-301900-
   South Central Minnesota

CITY           SKY/WX    TMP DP  RH WIND       PRES   REMARKS
MANKATO        SUNNY     81  48  32 SE9       29.98F
NEW ULM        SUNNY     79  52  38 S9        29.97F
ST JAMES       SUNNY     75  48  38 SE8       29.98F
FAIRMONT       SUNNY     79  52  38 SE15      29.99S
GLENCOE        MOSUNNY   79  60  52 S8        29.99S
FARIBAULT      SUNNY     79  54  41 SE9       30.00F
OWATONNA       MOSUNNY   79  50  36 S12       30.00F
WASECA         SUNNY     79  46  31 SE10G18   30.01F
ALBERT LEA     SUNNY     79  52  38 S10       30.00F
$$
MNZ078>079-086>088-094>096-301900-
   Southeast Minnesota

CITY           SKY/WX    TMP DP  RH WIND       PRES   REMARKS
ROCHESTER      SUNNY     78  51  38 S3        30.02F
6HR MIN TEMP:  57; 6HR MAX TEMP:  78;

RED WING       SUNNY     81  48  32 S7        29.99F
STANTON        SUNNY     80  52  37 S7        29.98F
DODGE CENTER   SUNNY     79  45  29 SE6       30.02S
WINONA         SUNNY     79  46  31 S3        30.01F
AUSTIN         SUNNY     79  52  38 SE7       30.01S
PRESTON        SUNNY     77  44  31 E5        30.03F
$$
ABBREVIATIONS USED IN REMARKS
   TC - TEMPERATURES IN CELSIUS
  WCI - WIND CHILL INDEX
   HX - HEAT INDEX
  VSB - VISIBILITY
$$




USA.gov is the U.S. government's official web portal to all federal, state and local government web resources and services.